Volver al catálogo

STARLINK-38171

ActivoComunicacionesSSO
NORAD 100382·PAYLOAD·🇺🇸 United States

Lanzado Aug 19, 2026 desde Vandenberg Space Force Base

Loading…

Próximos Pases (próximas 24 horas)

TLE

ActualizadoSource: Space-Track

Época: Sep 14, 2026, 12:43 UTC

1 A0382U 26190M   26257.52996019  .00228222  00000-0  14779-2 0  9992
2 A0382  97.2838 111.5593 0002708 123.6215 236.5310 15.75383230  4173

Sigue STARLINK-38171 en tiempo real con AllMySat

Download on the App Store